Temperature
8 6 6 6 7 8 8 8 8 9 11 12 13 13 14 15 16 16 17 18 18 18 18 18 18 18 18 17 17 17 17 16 16 15 15 14 14 13 13 13 12 12 12 11
6 6 7 7 7 8 7 7 8 9 11 12 11 12 14 15 15 16 17 17 18 17 17 17 17 17 17 17 16 16 16 15 15 15 14 14 13 13 12 12 12 12 11 11
5 7 8 8 7 7 7 7 7 8 10 11 11 11 13 14 15 16 17 18 18 17 17 17 16 16 16 16 15 15 14 14 14 14 14 13 13 12 12 11 11 11 11 11
5 7 7 7 7 7 7 8 9 9 9 9 11 11 12 14 14 15 16 17 17 17 17 16 15 15 15 15 14 14 13 13 13 13 13 13 13 12 12 11 11 11 10 10
6 6 6 7 7 8 7 9 9 9 8 8 9 9 11 12 14 15 15 16 16 16 16 15 14 14 14 14 13 13 13 13 13 13 13 13 12 12 12 11 11 10 10 9
6 7 7 7 8 8 9 9 8 8 8 8 9 9 11 12 14 15 15 16 15 15 14 14 13 13 12 12 12 12 12 12 12 12 12 12 12 12 11 11 10 9 9 9
6 6 7 7 7 7 8 7 7 7 7 8 10 10 11 13 14 15 15 15 14 13 12 13 12 12 12 12 12 12 12 12 12 12 12 12 12 11 11 10 9 9 8 8
5 5 6 7 7 7 7 7 7 7 7 9 10 11 12 13 14 15 16 14 12 11 11 11 12 11 11 11 12 12 12 12 11 11 11 11 11 10 9 9 8 8 8 7
5 6 8 8 8 8 7 7 8 7 8 9 10 11 12 13 13 13 12 12 10 10 10 10 11 11 11 11 11 12 12 12 11 11 11 10 10 9 9 8 8 7 7 6
5 5 7 7 7 7 8 8 7 6 8 9 10 11 12 13 12 11 11 10 10 9 9 10 10 10 10 11 11 11 12 11 11 10 10 10 9 8 8 7 7 7 6 6
6 5 6 6 6 6 7 7 7 7 8 9 10 12 14 14 13 12 11 10 9 9 8 9 10 10 10 10 11 11 11 11 10 10 9 9 8 8 7 7 6 6 5 5
6 5 6 6 7 8 8 8 8 8 8 8 9 12 14 13 13 12 11 10 9 9 8 9 10 9 10 10 10 10 10 10 10 9 8 8 7 7 6 6 6 5 4 4
6 5 6 7 7 7 7 8 9 9 8 9 10 12 12 11 11 12 11 10 9 8 8 9 9 9 9 10 10 10 9 9 9 8 7 7 6 6 6 5 5 4 3 3
7 5 6 8 9 8 8 9 9 8 8 9 10 11 12 11 11 10 10 10 9 8 8 9 9 9 9 9 9 9 8 8 8 7 6 6 6 5 5 4 4 3 2 2
7 6 7 7 8 9 9 9 9 9 9 9 11 12 13 12 11 10 11 10 9 8 8 9 9 9 9 9 8 8 8 7 7 6 6 5 5 5 4 3 3 2 2 1
7 7 7 8 9 10 9 10 10 9 9 9 11 13 13 11 10 10 10 10 9 8 8 9 9 9 9 8 8 7 7 6 6 5 5 4 4 4 3 2 2 1 1 0
8 8 8 9 10 10 10 11 10 10 11 11 12 13 12 11 11 10 10 10 10 9 9 9 9 9 9 8 8 7 6 5 5 4 4 4 3 3 2 2 1 1 0 -0
8 8 8 9 10 10 12 12 12 12 12 13 13 13 13 12 11 11 11 11 11 10 9 9 9 9 9 8 7 6 5 5 4 4 4 3 3 2 1 1 0 -0 -1 -1
9 9 9 9 10 11 13 12 12 12 12 12 12 12 10 10 11 10 11 12 12 11 10 10 10 9 8 7 6 5 5 4 4 3 3 2 2 1 1 0 -0 -1 -1 -2
9 9 9 9 10 11 13 13 12 13 13 12 11 10 9 10 10 9 11 12 12 11 11 10 9 9 8 7 6 5 4 4 3 3 2 2 1 0 0 -0 -1 -2 -2 -3
8 9 9 9 9 10 11 12 13 12 12 11 11 10 10 10 11 9 10 11 11 11 10 10 9 8 7 6 5 4 4 3 2 2 1 1 0 -0 -1 -1 -2 -2 -3 -3
8 8 8 9 9 10 12 12 12 11 10 9 9 9 9 7 8 8 9 10 10 10 9 9 8 7 6 5 4 3 3 2 2 1 1 0 -0 -1 -1 -2 -2 -3 -3 -3
8 9 8 9 10 10 11 12 11 11 10 9 8 8 9 6 5 7 8 8 8 8 8 7 6 5 4 3 3 3 2 2 1 1 0 -0 -1 -1 -2 -3 -3 -3 -3 -4
8 8 8 9 9 9 10 11 11 12 11 10 9 9 9 7 6 7 7 7 7 7 6 6 5 4 3 2 2 2 1 1 0 -0 -1 -1 -1 -2 -2 -3 -3 -4 -4 -5
9 8 8 9 9 9 9 10 11 11 11 9 8 8 9 8 7 7 7 6 6 5 5 4 4 3 2 2 1 1 0 0 -0 -1 -1 -2 -2 -2 -3 -3 -4 -4 -5 -6
8 8 9 10 9 8 8 9 10 11 10 9 8 7 8 9 8 7 7 6 5 5 4 3 3 2 2 1 1 0 -0 -1 -1 -1 -2 -2 -3 -3 -3 -3 -4 -4 -5 -6
Wind_Speed
4 5 9 11 13 10 7 8 10 7 7 8 16 21 16 14 13 13 13 11 10 10 7 6 6 7 7 7 8 9 12 12 13 11 9 9 7 7 8 8 12 14 14 14
4 11 12 9 8 10 12 17 16 11 9 10 14 21 16 17 16 15 17 15 11 9 8 7 6 6 7 8 10 11 12 10 10 9 8 7 7 7 7 6 10 14 14 12
13 5 10 14 13 12 15 16 13 11 13 13 14 16 18 16 15 16 17 16 13 17 16 11 9 7 9 10 11 12 11 12 13 13 13 12 8 6 5 7 6 8 12 12
11 12 10 10 14 14 16 10 11 12 9 7 7 10 10 13 17 19 19 16 15 15 14 12 11 10 10 10 10 12 13 13 12 12 13 14 10 7 5 5 6 7 10 11
10 9 15 19 18 13 8 5 9 10 10 11 13 12 10 9 17 20 20 17 17 18 18 17 14 12 10 11 11 12 13 12 10 10 11 12 10 8 7 7 8 7 6 8
12 7 9 13 15 15 8 5 8 8 7 14 19 13 10 10 16 13 17 17 18 18 16 14 11 12 11 11 11 12 13 12 11 11 11 12 13 11 10 8 7 5 4 5
11 15 12 6 7 10 12 8 6 7 9 11 10 12 13 12 13 17 17 17 19 21 20 19 17 15 14 13 13 12 14 13 11 12 11 11 11 11 10 8 7 5 3 3
7 9 13 13 14 11 17 16 10 7 7 6 9 14 11 13 15 13 12 15 21 22 21 20 19 17 16 15 14 14 15 13 12 13 11 10 10 8 7 8 6 5 3 2
9 8 6 14 13 12 9 15 12 6 7 6 9 8 8 9 9 8 13 19 22 22 20 19 16 15 15 15 14 15 16 14 12 12 12 10 10 9 8 7 6 4 3 2
8 8 6 6 7 14 11 8 7 8 6 7 8 9 9 10 10 11 18 21 20 18 18 17 16 15 12 12 12 12 14 14 12 11 10 10 9 9 8 7 6 5 3 3
10 8 5 5 12 16 14 13 9 9 8 5 5 8 9 16 16 19 19 20 22 22 20 18 15 13 13 13 13 13 13 13 12 11 10 10 8 8 7 6 5 4 3 3
11 7 8 10 9 13 16 15 14 9 8 7 6 8 5 11 15 18 18 17 17 18 17 16 16 15 14 14 13 12 12 12 11 10 10 9 8 8 7 5 4 3 3 3
11 7 5 4 6 10 13 16 18 10 3 5 6 8 6 6 10 12 16 17 16 17 17 14 15 15 15 14 13 12 11 11 10 11 10 9 8 7 6 4 3 3 4 4
12 7 9 8 4 6 11 17 20 14 9 8 9 9 3 6 10 12 14 17 17 17 18 16 15 14 14 13 13 12 11 11 11 10 9 8 7 6 5 4 3 3 4 5
9 7 10 15 15 10 11 17 22 19 14 9 9 7 7 8 11 14 16 17 18 18 18 18 17 14 14 13 13 13 12 10 11 10 9 7 6 5 4 3 3 4 5 6
8 6 7 9 10 12 12 15 18 19 15 12 9 5 1 5 7 10 15 19 19 19 19 18 17 16 16 16 15 13 12 11 10 9 8 7 6 5 3 3 4 5 5 6
6 5 4 5 3 4 6 13 16 14 11 11 8 4 4 5 9 14 17 19 20 20 19 19 18 18 16 16 16 15 12 11 10 9 7 6 5 4 3 3 4 5 5 6
6 4 3 4 2 1 4 5 11 11 10 9 5 3 5 6 6 4 5 13 14 15 16 15 15 14 13 13 14 13 12 11 9 8 7 6 5 3 2 3 4 5 5 5
7 4 2 2 3 5 4 2 4 6 5 7 8 6 6 8 7 4 3 6 9 11 13 13 13 15 15 16 15 14 11 10 9 8 6 5 4 3 2 4 5 4 5 6
5 3 1 2 2 2 3 3 1 5 3 1 7 10 10 10 6 4 1 7 11 13 13 14 15 17 16 14 15 14 12 9 8 7 6 5 3 2 2 4 4 4 5 6
5 3 4 2 3 6 6 4 2 5 4 2 3 9 12 8 6 9 10 12 15 16 17 17 17 15 15 14 14 13 10 8 7 7 6 4 3 2 2 3 3 5 6 7
7 6 6 5 4 7 3 2 3 3 1 3 2 4 9 13 15 14 14 16 17 17 16 16 16 14 11 11 13 12 9 8 7 6 5 3 2 2 3 4 5 6 6 7
7 8 6 8 7 2 1 1 1 3 3 3 5 10 17 16 14 15 14 15 14 15 14 13 16 14 10 9 11 12 8 8 7 6 4 3 3 3 3 4 5 6 6 5
5 4 4 4 5 2 1 2 3 4 5 7 10 13 16 18 16 16 14 14 13 13 13 13 15 13 9 8 9 9 8 7 7 6 3 2 2 3 4 4 4 4 5 6
6 7 5 4 2 2 0 2 5 8 12 14 11 11 15 20 17 15 14 13 12 12 10 10 12 12 10 9 9 8 7 7 6 4 2 1 2 3 4 4 4 6 5 7
5 7 8 7 7 7 5 6 8 11 12 14 16 12 10 14 16 14 12 10 11 11 10 11 11 11 10 9 8 7 6 7 6 3 1 1 2 3 4 5 6 9 11 15
Wind_Direction
213 193 214 212 216 239 267 269 274 277 297 277 259 260 253 245 246 245 249 245 230 218 208 185 159 134 120 116 116 120 124 126 124 122 116 110 102 95 86 80 77 76 73 69
242 234 227 218 224 238 253 265 272 288 282 286 281 273 258 240 236 235 241 240 216 195 188 186 162 141 133 124 119 120 124 120 119 117 112 110 112 98 88 80 71 70 68 65
216 226 216 219 227 235 242 244 255 269 301 292 284 276 257 246 236 235 237 236 209 188 185 180 163 149 136 130 129 128 123 119 119 118 115 113 103 89 80 75 70 65 70 67
238 240 250 231 230 225 248 237 244 255 260 267 263 279 258 238 236 236 236 229 210 190 178 169 159 152 145 135 126 125 124 123 122 123 129 130 127 121 115 108 93 73 69 67
226 211 221 234 236 225 237 230 242 246 250 264 259 270 265 232 234 232 229 220 203 185 173 167 160 152 141 132 126 124 121 118 114 112 119 117 113 112 113 105 95 79 63 60
237 232 223 227 234 228 236 257 258 242 245 251 240 235 263 225 226 224 222 212 193 174 162 151 141 137 131 126 122 123 120 114 112 111 110 118 121 123 120 114 107 90 72 52
242 235 230 219 224 216 211 220 227 215 215 241 205 214 247 237 233 224 218 201 178 164 157 152 149 146 141 134 129 125 123 118 115 112 109 114 118 118 120 121 116 109 90 63
231 243 211 207 211 206 203 205 213 208 221 239 189 223 243 238 249 241 216 178 163 160 159 157 153 149 145 139 133 129 125 122 118 115 111 108 108 107 108 109 112 111 115 112
223 246 212 208 200 195 195 207 224 270 288 245 219 237 264 237 239 209 168 158 163 160 157 153 149 147 145 140 136 133 129 124 120 117 114 108 106 106 108 107 102 102 98 94
211 254 240 210 188 206 208 177 174 207 245 243 228 220 218 204 199 170 161 162 159 154 151 150 149 146 141 134 128 124 125 125 122 118 116 114 108 109 111 108 105 103 88 59
204 232 251 201 202 204 195 194 191 197 233 259 229 238 214 195 182 173 171 165 160 158 156 154 150 144 136 131 129 127 125 124 120 115 111 111 109 110 108 106 107 103 76 41
200 223 248 235 221 204 196 200 193 197 211 224 268 269 278 198 175 170 166 162 158 154 152 150 148 143 141 139 136 133 130 127 123 119 114 111 111 110 107 105 98 83 53 19
181 211 248 246 210 194 204 206 204 215 251 237 237 267 330 134 141 155 154 153 152 150 148 147 149 151 149 146 141 137 132 129 124 120 116 113 114 113 112 107 86 57 27 0
178 212 223 237 234 188 195 200 200 201 222 245 248 260 293 138 143 148 152 153 153 155 155 155 155 154 151 147 143 137 131 129 126 121 119 121 124 123 119 102 68 30 7 352
191 240 244 255 255 236 214 201 195 201 211 225 254 245 226 182 164 159 154 152 154 159 162 163 161 156 150 144 139 137 132 129 128 125 123 127 128 121 107 80 38 12 359 349
204 255 275 276 251 224 218 209 199 204 216 228 252 284 279 106 108 135 153 159 165 169 170 167 162 157 154 150 145 138 134 132 129 127 129 129 125 116 96 56 23 5 351 340
204 240 283 302 275 173 208 202 196 197 203 207 220 225 134 132 157 164 168 171 174 174 171 169 166 162 156 151 145 141 137 133 128 128 131 130 124 112 79 37 13 352 337 328
201 227 277 316 3 284 257 200 181 186 196 191 189 191 173 159 127 110 160 173 172 168 165 161 155 147 140 136 135 131 132 131 129 131 133 130 122 104 59 19 352 328 315 313
193 200 289 332 327 303 322 43 159 178 214 194 186 165 130 119 88 40 6 161 157 151 148 144 139 135 134 135 135 131 129 129 130 134 135 130 121 98 30 349 327 312 306 306
181 179 238 330 325 287 305 324 263 142 240 220 178 169 159 139 143 200 74 115 115 117 123 125 125 128 130 134 134 132 133 133 137 138 133 126 113 84 352 321 309 300 298 292
158 180 195 232 281 277 272 300 79 138 235 323 198 177 167 165 150 124 102 99 108 112 117 122 125 129 133 134 130 130 132 136 135 129 123 111 88 24 325 318 304 302 301 303
167 172 182 176 224 261 286 76 143 199 348 38 68 118 122 108 106 107 106 107 109 112 115 120 121 120 122 127 128 128 132 131 125 120 112 94 50 357 348 330 312 308 310 312
197 190 186 194 213 266 337 112 103 140 109 87 94 116 122 116 113 110 107 108 109 113 113 116 120 117 112 117 127 130 133 129 121 112 102 74 24 354 337 320 315 317 319 316
240 181 171 233 257 252 4 53 48 75 100 104 116 121 122 119 119 114 114 112 111 113 115 119 120 121 116 113 113 124 130 124 118 112 95 54 5 333 325 316 313 317 315 312
211 172 181 230 243 117 225 123 106 95 102 103 97 106 123 122 122 122 121 120 119 118 117 121 125 125 122 119 117 120 123 119 114 109 88 18 331 315 313 318 316 320 297 310
196 177 178 212 204 182 185 149 128 121 121 122 117 104 104 121 124 123 121 122 124 124 121 120 120 123 124 123 122 121 120 120 120 116 81 313 306 307 313 317 319 328 331 329
Height
1483 1486 1485 1484 1483 1482 1482 1481 1481 1477 1472 1470 1463 1457 1454 1454 1453 1452 1451 1452 1453 1453 1455 1456 1457 1458 1459 1460 1461 1463 1465 1468 1471 1475 1479 1483 1487 1490 1491 1493 1494 1495 1496 1497
1484 1482 1479 1479 1481 1482 1482 1481 1479 1476 1472 1469 1464 1454 1448 1445 1444 1445 1445 1446 1447 1449 1451 1452 1453 1454 1456 1456 1458 1460 1462 1466 1470 1474 1478 1482 1485 1488 1490 1492 1493 1494 1495 1495
1479 1474 1473 1476 1478 1479 1477 1479 1479 1479 1474 1467 1465 1452 1442 1436 1436 1437 1437 1438 1440 1442 1444 1447 1449 1451 1452 1454 1456 1458 1461 1465 1469 1473 1477 1481 1484 1486 1489 1491 1492 1493 1494 1494
1475 1472 1472 1472 1472 1474 1473 1471 1473 1474 1477 1471 1464 1454 1437 1430 1429 1427 1427 1429 1431 1434 1438 1441 1444 1447 1449 1451 1455 1458 1461 1465 1469 1472 1476 1478 1481 1484 1487 1489 1491 1492 1492 1492
1466 1466 1466 1467 1465 1468 1468 1466 1468 1469 1471 1470 1463 1460 1435 1426 1421 1416 1416 1419 1422 1426 1430 1435 1439 1443 1447 1450 1453 1457 1461 1465 1468 1472 1475 1478 1481 1483 1486 1488 1490 1490 1490 1490
1461 1461 1460 1459 1459 1462 1463 1466 1465 1465 1468 1462 1449 1454 1431 1418 1408 1405 1405 1408 1412 1418 1424 1430 1436 1441 1444 1448 1452 1456 1460 1463 1468 1471 1475 1478 1480 1483 1485 1487 1488 1489 1488 1487
1456 1455 1454 1455 1456 1457 1462 1467 1466 1463 1460 1448 1435 1439 1419 1404 1397 1395 1396 1398 1404 1410 1417 1425 1431 1437 1441 1445 1450 1454 1458 1462 1467 1471 1474 1478 1480 1482 1484 1485 1486 1487 1486 1485
1455 1450 1445 1445 1447 1449 1451 1458 1459 1458 1452 1438 1429 1422 1404 1394 1389 1388 1389 1392 1399 1406 1412 1420 1427 1433 1438 1443 1448 1453 1457 1462 1466 1470 1474 1477 1480 1481 1483 1484 1485 1484 1484 1482
1447 1442 1433 1433 1435 1441 1445 1448 1448 1449 1439 1432 1418 1407 1396 1386 1384 1382 1384 1390 1396 1402 1409 1417 1424 1431 1436 1441 1447 1452 1456 1461 1465 1469 1473 1476 1478 1480 1482 1482 1482 1482 1481 1479
1441 1440 1431 1429 1433 1435 1437 1439 1446 1451 1442 1426 1410 1403 1390 1382 1382 1382 1383 1387 1394 1402 1409 1416 1423 1430 1436 1441 1447 1453 1457 1461 1465 1469 1472 1475 1477 1479 1480 1480 1480 1479 1478 1477
1435 1437 1429 1427 1425 1424 1431 1434 1433 1436 1435 1422 1406 1392 1368 1367 1371 1376 1380 1385 1392 1399 1407 1415 1423 1430 1436 1441 1447 1452 1456 1461 1464 1468 1471 1473 1476 1477 1478 1478 1478 1477 1475 1473
1428 1430 1424 1417 1412 1413 1417 1419 1423 1426 1423 1421 1412 1388 1362 1361 1364 1370 1379 1387 1393 1400 1407 1415 1422 1429 1435 1440 1446 1451 1455 1460 1463 1467 1470 1472 1474 1476 1476 1476 1475 1474 1472 1470
1422 1424 1419 1408 1409 1410 1411 1410 1413 1415 1417 1412 1407 1387 1364 1362 1368 1373 1380 1388 1395 1402 1409 1416 1422 1428 1433 1439 1444 1450 1454 1458 1462 1465 1468 1471 1473 1474 1474 1474 1473 1471 1469 1467
1414 1415 1412 1400 1392 1395 1399 1401 1404 1412 1412 1407 1399 1385 1372 1369 1371 1377 1383 1388 1395 1402 1408 1414 1421 1426 1432 1438 1443 1448 1453 1457 1461 1464 1467 1470 1471 1472 1472 1471 1470 1468 1466 1464
1408 1405 1400 1393 1388 1388 1389 1389 1395 1400 1401 1402 1391 1380 1371 1369 1371 1375 1382 1389 1396 1402 1408 1413 1418 1424 1430 1436 1442 1447 1452 1456 1460 1463 1466 1468 1469 1470 1469 1468 1467 1465 1463 1461
1402 1399 1393 1384 1376 1377 1380 1381 1385 1391 1394 1395 1387 1378 1368 1370 1373 1378 1383 1388 1394 1400 1405 1411 1416 1422 1428 1434 1439 1445 1450 1455 1459 1462 1465 1466 1467 1467 1467 1466 1464 1463 1460 1457
1396 1395 1390 1380 1371 1372 1375 1372 1376 1381 1382 1384 1381 1374 1370 1373 1375 1377 1382 1386 1391 1396 1401 1407 1413 1420 1426 1432 1438 1444 1449 1454 1458 1461 1463 1465 1465 1465 1464 1463 1462 1460 1457 1453
1391 1391 1389 1381 1376 1376 1367 1359 1364 1369 1371 1372 1370 1369 1370 1372 1376 1380 1383 1385 1390 1395 1401 1407 1413 1420 1426 1433 1439 1444 1449 1454 1457 1460 1462 1463 1463 1463 1462 1461 1459 1456 1453 1449
1386 1387 1387 1386 1381 1373 1362 1360 1361 1365 1367 1366 1368 1369 1372 1374 1378 1383 1384 1388 1391 1396 1401 1407 1414 1420 1426 1433 1439 1444 1449 1453 1456 1459 1460 1461 1461 1460 1459 1458 1455 1452 1449 1445
1383 1384 1387 1387 1384 1379 1365 1359 1359 1363 1367 1363 1363 1367 1371 1373 1382 1384 1384 1387 1392 1398 1403 1409 1415 1422 1427 1434 1439 1444 1448 1452 1455 1457 1458 1458 1458 1458 1457 1455 1452 1448 1445 1441
1384 1385 1386 1387 1385 1376 1364 1359 1359 1371 1367 1362 1361 1363 1366 1369 1374 1379 1383 1388 1393 1399 1405 1411 1417 1423 1429 1434 1439 1444 1448 1451 1454 1455 1456 1456 1456 1455 1454 1451 1448 1445 1441 1436
1378 1382 1384 1384 1384 1378 1361 1360 1364 1364 1361 1360 1360 1361 1366 1370 1374 1379 1384 1389 1395 1401 1407 1413 1419 1424 1431 1436 1440 1444 1448 1450 1452 1453 1454 1454 1454 1452 1450 1448 1444 1441 1436 1431
1373 1373 1373 1374 1372 1365 1362 1361 1362 1361 1361 1362 1362 1364 1366 1371 1378 1383 1389 1394 1400 1405 1410 1416 1421 1426 1432 1437 1441 1444 1447 1449 1450 1451 1452 1452 1451 1449 1447 1444 1440 1436 1431 1425
1368 1367 1369 1369 1366 1364 1363 1363 1363 1363 1363 1364 1366 1368 1370 1374 1382 1387 1393 1399 1404 1409 1414 1419 1423 1428 1433 1438 1442 1444 1446 1448 1449 1450 1450 1449 1448 1446 1444 1440 1436 1431 1426 1421
1362 1364 1366 1366 1364 1364 1363 1363 1364 1365 1366 1368 1371 1374 1376 1380 1387 1392 1397 1403 1407 1412 1417 1422 1426 1429 1434 1438 1441 1443 1445 1446 1447 1448 1448 1447 1445 1443 1439 1436 1432 1427 1422 1418
1359 1360 1362 1361 1358 1360 1362 1363 1366 1367 1369 1372 1375 1380 1384 1387 1391 1397 1401 1406 1411 1415 1419 1423 1427 1431 1435 1438 1440 1442 1444 1445 1446 1446 1445 1444 1441 1439 1435 1431 1428 1423 1420 1415